{"data":{"norad_id":51748,"intl_designator":"2022-016AL","name":"STARLINK-3501","alt_names":[],"object_type":"PAYLOAD","status":"ACTIVE","operator":null,"country":"US","launch_date":"2022-02-21","launch_site_code":"AFETR","launch_vehicle":null,"mission":null,"orbit_class":"UNKNOWN","rcs_meters":null,"size_class":null,"mass_kg":null,"dimensions":null,"purposes":["comms"],"wikipedia_slug":null,"has_3d_model":false,"image_url":null,"decayed_at":null,"tle_current":{"epoch":"2026-05-24T19:38:02.695200Z","epoch_age_seconds":81048,"freshness":"FRESH","line1":"1 51748U 22016AL  26144.81808675  .00000617  00000+0  56830-4 0  9995","line2":"2 51748  53.2144 327.3675 0001264  91.7077 268.4060 15.08839705235195","mean_motion":15.08839705,"eccentricity":0.0001264,"inclination_deg":53.2144,"raan_deg":327.3675,"arg_perigee_deg":91.7077,"mean_anomaly_deg":268.406,"bstar":5.683e-5,"rev_number":23519,"period_min":95.437573337189,"perigee_km":538.86987046609,"apogee_km":540.61871085637,"semimajor_km":6917.8812906612,"source":"CELESTRAK","updated_at":"2026-05-25T13:38:16.946618Z"}}}